Piedmont Triad International Airport
KGSO : now visible

Airfield :











YOU CAN JOIN US ON...

 
LOGIN :

Register | Disclaimer

   EN    FR    IT 

 









Legend :    VFR   Marginal VFR   IFR   Intensive IFR   Very Intensive IFR
Visi :
Ceiling :
>= 8 km
>= 3000ft
5 to 8 km
1000 to 3000 ft
1500m to 5 km
500 to 1000 ft
800 to 1500m
200 to 500 ft
< 800m
< 200 ft
Symbols :   Thunderstorms  Fog  Heavy snow  Heavy precipitations  Wind > 20 kt






- Airport Elevation : 925 ft
- IATA code : GSO


KGSO - Piedmont Triad International

CURRENT METAR :
  • 311754Z 00000KT 8SM FEW040 SCT250 30/18 A2998 RMK AO2 SLP138 T03000183 10306 20222 58015

EXPIRED METARs :
  • 311654Z 02005KT 10SM FEW250 29/19 A3000 RMK AO2 SLP145 T02940189
  • 311554Z 04005KT 10SM FEW250 28/19 A3001 RMK AO2 SLP151 T02780189

TAF KGSO
Valid from the 31 at 18:00 until the 01 at 18:00 UTC


311740Z 3118/0118 VRB05KT P6SM SCT250
FM010400 VRB04KT P6SM BKN200
FM011700 30008KT P6SM FEW050 BKN250
KZTL FIR / North America



MET'MAP, your aeronautical weather chart ! - Copyright ORBIFLY December 2007 - Disclaimer

ORBIFLY MET'MAP TEAM :

Programming & Development : Alexandra Zaïnal
Concept & original design : Baudouin d'Aumeries
Assistance for programming : Marc-Olivier Méhu
Technical & hardware support : Manuel Goepfert

Contact : metmap@orbifly.com




SOURCES & CREDITS :

   NOAA       Earth
Advisory